Weather History for KMYP - September, 2013

Change the Weather History Date:

Thursday, September 5, 2013

  Actual Average (KGUC) Record (KGUC)
Temperature  
Mean Temperature 59 °F -  
Max Temperature 68 °F 70 °F 84 °F (2013)
Min Temperature 50 °F 37 °F 32 °F (1999)
Degree Days  
Heating Degree Days 6    
Growing Degree Days 9 (Base 50)    
Moisture  
Dew Point 34 °F    
Average Humidity 40    
Maximum Humidity 66    
Minimum Humidity 24    
Precipitation  
Precipitation 0.00 in - - ()
Sea Level Pressure  
Sea Level Pressure 30.89 in    
Wind  
Wind Speed 8 mph (South)    
Max Wind Speed 17 mph    
Max Gust Speed 22 mph    
Visibility 10 miles    
Events Thunderstorm    
Averages and records for this station are not official NWS values.
T = Trace of Precipitation, MM = Missing Value Source: NWS Daily Summary

Daily Weather History Graph

Daily Weather History Graph

Search for Another Location

Airport or City:

Trip Planner

Search our weather history database for the weather conditions in past years. The results will help you decide how hot, cold, wet, or windy it might be!

Date:

Astronomy

Sep. 05, 2013 Rise Set
Actual Time 6:38 AM MDT 7:28 PM MDT
Civil Twilight 6:11 AM MDT 7:55 PM MDT
Nautical Twilight 5:39 AM MDT 8:27 PM MDT
Astronomical Twilight 5:06 AM MDT 9:00 PM MDT
Moon 6:51 AM MDT (9/5) 7:23 PM MDT (9/5)
Length of Visible Light 13h 44m
Length of Day
12h 50m
New Moon, 0% of the Moon is Illuminated
Sep 5
New Moon
Sep 12
First Quarter
Sep 19
Full
Sep 26
Last Quarter
Oct 4
New

Hourly Weather History & Observations

Time (MDT) Temp. Dew Point Humidity Pressure Visibility Wind Dir Wind Speed Gust Speed Precip Events Conditions
8:09 AM 50.0 °F 39.2 °F 66% 30.92 in 10.0 mi SW 8.1 mph - N/A   Clear
8:29 AM 50.0 °F 39.2 °F 66% 30.92 in 10.0 mi West 9.2 mph - N/A   Clear
8:49 AM 51.8 °F 39.2 °F 62% 30.92 in 10.0 mi WSW 6.9 mph - N/A   Clear
9:09 AM 51.8 °F 39.2 °F 62% 30.92 in 10.0 mi West 6.9 mph - N/A   Clear
9:29 AM 53.6 °F 41.0 °F 62% 30.92 in 10.0 mi West 6.9 mph - N/A   Clear
9:49 AM 55.4 °F 41.0 °F 58% 30.93 in 10.0 mi SSW 4.6 mph - N/A   Clear
10:09 AM 57.2 °F 41.0 °F 55% 30.93 in 10.0 mi SW 6.9 mph - N/A   Clear
10:29 AM 57.2 °F 41.0 °F 55% 30.93 in 10.0 mi West 6.9 mph - N/A   Clear
10:49 AM 59.0 °F 35.6 °F 42% 30.92 in 10.0 mi SSW 12.7 mph - N/A   Scattered Clouds
11:09 AM 59.0 °F 33.8 °F 39% 30.93 in 10.0 mi SSW 11.5 mph 16.1 mph N/A   Clear
11:29 AM 60.8 °F 33.8 °F 36% 30.92 in 10.0 mi SSW 9.2 mph 19.6 mph N/A   Clear
11:49 AM 62.6 °F 35.6 °F 37% 30.92 in 10.0 mi SW 9.2 mph 16.1 mph N/A   Clear
12:09 PM 60.8 °F 33.8 °F 36% 30.92 in 10.0 mi SE 3.5 mph - N/A   Clear
12:29 PM 60.8 °F 35.6 °F 39% 30.92 in 10.0 mi SW 11.5 mph - N/A   Clear
12:49 PM 60.8 °F 35.6 °F 39% 30.91 in 10.0 mi WSW 6.9 mph 16.1 mph N/A   Clear
1:09 PM 62.6 °F 33.8 °F 34% 30.91 in 10.0 mi SSW 8.1 mph - N/A   Scattered Clouds
1:29 PM 64.4 °F 33.8 °F 32% 30.91 in 10.0 mi SW 12.7 mph 19.6 mph N/A   Scattered Clouds
1:49 PM 66.2 °F 32.0 °F 28% 30.90 in 10.0 mi SSW 12.7 mph 17.3 mph N/A   Scattered Clouds
2:09 PM 64.4 °F 30.2 °F 28% 30.90 in 10.0 mi Calm Calm - N/A   Scattered Clouds
2:29 PM 66.2 °F 30.2 °F 26% 30.89 in 10.0 mi West 3.5 mph - N/A   Clear
2:49 PM 68.0 °F 32.0 °F 26% 30.88 in 10.0 mi SSW 11.5 mph 17.3 mph N/A   Scattered Clouds
3:09 PM 66.2 °F 30.2 °F 26% 30.88 in 10.0 mi SW 8.1 mph 18.4 mph N/A   Clear
3:29 PM 66.2 °F 32.0 °F 28% 30.87 in 10.0 mi South 11.5 mph 16.1 mph N/A   Scattered Clouds
3:49 PM 66.2 °F 32.0 °F 28% 30.87 in 10.0 mi SSE 12.7 mph 17.3 mph N/A   Scattered Clouds
4:09 PM 64.4 °F 30.2 °F 28% 30.86 in 10.0 mi South 15.0 mph 21.9 mph N/A   Clear
4:29 PM 68.0 °F 30.2 °F 24% 30.86 in 10.0 mi SSW 15.0 mph 21.9 mph N/A   Clear
4:49 PM 68.0 °F 32.0 °F 26% 30.86 in 10.0 mi South 6.9 mph - N/A   Scattered Clouds
5:09 PM 66.2 °F 32.0 °F 28% 30.86 in 10.0 mi South 5.8 mph - N/A Thunderstorm Scattered Clouds
5:29 PM 66.2 °F 32.0 °F 28% 30.86 in 10.0 mi South 6.9 mph 17.3 mph N/A   Mostly Cloudy
5:49 PM 64.4 °F 32.0 °F 30% 30.85 in 10.0 mi SSE 9.2 mph - N/A Thunderstorm Scattered Clouds
6:09 PM 64.4 °F 32.0 °F 30% 30.85 in 10.0 mi SE 5.8 mph - N/A   Scattered Clouds
6:29 PM 62.6 °F 32.0 °F 32% 30.84 in 10.0 mi Calm Calm - N/A   Mostly Cloudy
6:49 PM 60.8 °F 32.0 °F 34% 30.85 in 10.0 mi South 9.2 mph - N/A   Scattered Clouds
7:09 PM 60.8 °F 32.0 °F 34% 30.86 in 10.0 mi South 6.9 mph - N/A Thunderstorm Clear
7:29 PM 59.0 °F 33.8 °F 39% 30.86 in 10.0 mi South 4.6 mph - N/A   Mostly Cloudy
7:49 PM 59.0 °F 33.8 °F 39% 30.86 in 10.0 mi East 5.8 mph - N/A Thunderstorm Scattered Clouds
8:09 PM 57.2 °F 35.6 °F 44% 30.87 in 10.0 mi ENE 3.5 mph - N/A   Scattered Clouds
8:29 PM 57.2 °F 35.6 °F 44% 30.88 in 10.0 mi ENE 4.6 mph - N/A   Mostly Cloudy
8:49 PM 55.4 °F 35.6 °F 47% 30.88 in 10.0 mi ENE 6.9 mph - N/A   Mostly Cloudy
9:09 PM 55.4 °F 35.6 °F 47% 30.88 in 10.0 mi ENE 8.1 mph - N/A   Scattered Clouds
9:29 PM 55.4 °F 35.6 °F 47% 30.89 in 10.0 mi ENE 5.8 mph - N/A   Clear
9:49 PM 55.4 °F 33.8 °F 44% 30.89 in 10.0 mi ENE 8.1 mph - N/A   Clear
10:09 PM 53.6 °F 33.8 °F 47% 30.89 in 10.0 mi ENE 5.8 mph - N/A Thunderstorm Scattered Clouds
10:29 PM 55.4 °F 33.8 °F 44% 30.89 in 10.0 mi SE 4.6 mph - N/A   Scattered Clouds
10:49 PM 55.4 °F 33.8 °F 44% 30.88 in 10.0 mi South 10.4 mph - N/A   Clear
11:09 PM 53.6 °F 33.8 °F 47% 30.88 in 10.0 mi South 12.7 mph 17.3 mph N/A   Clear
11:29 PM 53.6 °F 33.8 °F 47% 30.88 in 10.0 mi South 10.4 mph - N/A   Scattered Clouds
11:49 PM 53.6 °F 33.8 °F 47% 30.87 in 10.0 mi SSE 17.3 mph 21.9 mph N/A   Scattered Clouds